Location: Tel Aviv
(32.0670°N, 34.7670°E)
Time: 21:48:58
(UTC+02:00)

CUTE-I - Pass Details

Date: 19 December 2025
Orbit: 805 x 817 km, 98.7° (Epoch: 21 January)

Event Time Altitude Azimuth Distance (km) Brightness Sun altitude
Rises 18:29:22 0° 207° (SSW) 3,304 ? -22.5°
Reaches altitude 10° 18:32:36 10° 228° (SW) 2,379 ? -23.2°
Maximum altitude 18:35:47 16° 266° (W) 1,984 ? -23.8°
Drops below altitude 10° 18:39:00 10° 304° (WNW) 2,391 ? -24.5°
Sets 18:42:16 0° 325° (NW) 3,329 ? -25.2°
